Location: Unspecified
(0.0000°N, 0.0000°E)
Time: 20:17:27
(UTC+00:00)

STARLINK-1933 - Visible Passes

Search period start: 12 January 2025 00:00
Search period end: 22 January 2025 00:00
Orbit: 322 x 337 km, 53.0° (Epoch: 12 January)

Date Brightness Start Highest point End Pass type
(mag) Time Alt. Az. Time Alt. Az. Time Alt. Az.
13 Jan 5.3 05:03:09 10° NNE 05:05:02 16° NE 05:06:56 10° E visible
14 Jan 2.5 05:21:04 16° NW 05:23:09 77° SW 05:25:56 10° SSE visible
15 Jan 4.8 05:39:24 10° W 05:40:50 13° SW 05:42:16 10° SSW visible
16 Jan 5.3 04:25:20 20° SE 04:25:20 20° SE 04:26:23 10° SE visible
17 Jan 5.4 04:42:18 12° S 04:42:18 12° S 04:42:39 10° S visible
